Time,TemperatureF,DewpointF,PressureIn,WindDirection,WindDirectionDegrees,WindSpeedMPH,WindSpeedGustMPH,Humidity,HourlyPrecipIn,Conditions,Clouds,dailyrainin,SoftwareType,DateUTC
2013-01-02 00:02:00,15.4,10.1,29.87,East,82,2.3,0.0,79,0.00,RA,SCT,0.00,WeatherDisplay:10.37,2013-01-02 08:02:00,
2013-01-02 00:07:00,15.3,9.9,29.87,East,101,3.5,3.5,79,0.00,RA,SCT,0.00,WeatherDisplay:10.37,2013-01-02 08:07:00,
2013-01-02 00:12:00,15.3,9.9,29.87,East,101,3.5,3.5,79,0.00,CLR,SCT,0.00,WeatherDisplay:10.37,2013-01-02 08:12:00,
2013-01-02 00:17:00,15.3,9.9,29.87,East,101,3.5,3.5,79,0.00,CLR,SCT,0.00,WeatherDisplay:10.37,2013-01-02 08:17:00,
2013-01-02 00:22:00,15.3,9.9,29.87,East,101,3.5,3.5,79,0.00,CLR,SCT,0.00,WeatherDisplay:10.37,2013-01-02 08:22:00,
2013-01-02 00:28:00,15.3,10.2,29.87,SSE,155,3.5,3.5,80,0.00,CLR,SCT,0.00,WeatherDisplay:10.37,2013-01-02 08:28:00,
2013-01-02 00:33:00,15.3,10.2,29.87,SSE,155,3.5,0.0,80,0.00,CLR,SCT,0.00,WeatherDisplay:10.37,2013-01-02 08:33:00,
2013-01-02 00:38:00,15.3,10.2,29.87,SSE,155,0.0,0.0,80,0.00,CLR,SCT,0.00,WeatherDisplay:10.37,2013-01-02 08:38:00,
2013-01-02 00:43:00,15.3,10.2,29.87,SSE,155,0.0,0.0,80,0.00,CLR,SCT,0.00,WeatherDisplay:10.37,2013-01-02 08:43:00,
2013-01-02 00:48:00,15.3,10.2,29.87,SSE,155,0.0,0.0,80,0.00,CLR,SCT,0.00,WeatherDisplay:10.37,2013-01-02 08:48:00,
2013-01-02 00:53:00,15.3,10.2,29.87,SSE,155,0.0,0.0,80,0.00,CLR,SCT,0.00,WeatherDisplay:10.37,2013-01-02 08:53:00,
2013-01-02 00:58:00,15.3,10.2,29.87,SSE,155,0.0,0.0,80,0.00,CLR,SCT,0.00,WeatherDisplay:10.37,2013-01-02 08:58:00,
2013-01-02 01:04:00,15.3,10.2,29.87,SSE,155,0.0,0.0,80,0.00,CLR,SCT,0.00,WeatherDisplay:10.37,2013-01-02 09:04:00,
2013-01-02 01:09:00,15.3,10.2,29.87,SSE,155,0.0,0.0,80,0.00,CLR,SCT,0.00,WeatherDisplay:10.37,2013-01-02 09:09:00,
2013-01-02 01:14:00,16.0,10.9,29.87,SSE,155,0.0,0.0,80,0.00,CLR,SCT,0.00,WeatherDisplay:10.37,2013-01-02 09:14:00,
2013-01-02 01:19:00,16.0,10.9,29.87,SSE,155,0.0,0.0,80,0.00,CLR,SCT,0.00,WeatherDisplay:10.37,2013-01-02 09:19:00,
2013-01-02 01:25:00,16.0,10.9,29.87,SSE,155,0.0,0.0,80,0.00,CLR,SCT,0.00,WeatherDisplay:10.37,2013-01-02 09:25:00,
2013-01-02 01:30:00,15.8,10.7,29.87,South,175,0.0,0.0,80,0.00,CLR,SCT,0.00,WeatherDisplay:10.37,2013-01-02 09:30:00,
2013-01-02 01:35:00,15.8,10.7,29.87,South,175,0.0,0.0,80,0.00,CLR,SCT,0.00,WeatherDisplay:10.37,2013-01-02 09:35:00,
2013-01-02 01:40:00,16.0,10.9,29.87,South,175,0.0,0.0,80,0.00,CLR,SCT,0.00,WeatherDisplay:10.37,2013-01-02 09:40:00,
2013-01-02 01:45:00,16.0,10.9,29.84,South,176,0.0,0.0,80,0.00,CLR,SCT,0.00,WeatherDisplay:10.37,2013-01-02 09:45:00,
2013-01-02 01:50:00,16.0,10.9,29.84,South,176,0.0,0.0,80,0.00,CLR,SCT,0.00,WeatherDisplay:10.37,2013-01-02 09:50:00,
2013-01-02 01:56:00,16.0,10.6,29.84,South,176,0.0,0.0,79,0.00,CLR,SCT,0.00,WeatherDisplay:10.37,2013-01-02 09:56:00,
2013-01-02 02:01:00,16.0,10.6,29.84,NNE,20,2.3,3.6,79,0.00,CLR,SCT,0.00,WeatherDisplay:10.37,2013-01-02 10:01:00,
2013-01-02 02:06:00,16.0,10.6,29.84,NNE,22,3.5,3.5,79,0.00,CLR,SCT,0.00,WeatherDisplay:10.37,2013-01-02 10:06:00,
2013-01-02 02:11:00,15.8,10.4,29.84,NNE,22,3.5,3.5,79,0.00,CLR,SCT,0.00,WeatherDisplay:10.37,2013-01-02 10:11:00,
2013-01-02 02:17:00,15.8,10.4,29.84,North,0,3.5,3.5,79,0.00,CLR,SCT,0.00,WeatherDisplay:10.37,2013-01-02 10:17:00,
2013-01-02 02:22:00,15.4,10.1,29.84,North,8,3.5,3.5,79,0.00,CLR,SCT,0.00,WeatherDisplay:10.37,2013-01-02 10:22:00,
2013-01-02 02:27:00,15.4,10.1,29.84,North,8,3.5,3.5,79,0.00,CLR,SCT,0.00,WeatherDisplay:10.37,2013-01-02 10:27:00,
2013-01-02 02:32:00,15.4,10.1,29.84,North,0,3.5,3.5,79,0.00,CLR,SCT,0.00,WeatherDisplay:10.37,2013-01-02 10:32:00,
2013-01-02 02:37:00,15.4,10.1,29.84,North,2,3.5,3.5,79,0.00,CLR,SCT,0.00,WeatherDisplay:10.37,2013-01-02 10:37:00,
2013-01-02 02:43:00,15.4,10.1,29.84,North,2,3.5,3.5,79,0.00,CLR,SCT,0.00,WeatherDisplay:10.37,2013-01-02 10:43:00,
2013-01-02 02:48:00,15.4,10.1,29.84,North,357,3.5,0.0,79,0.00,CLR,SCT,0.00,WeatherDisplay:10.37,2013-01-02 10:48:00,
2013-01-02 02:53:00,15.6,10.3,29.84,SW,217,3.5,0.0,79,0.00,CLR,SCT,0.00,WeatherDisplay:10.37,2013-01-02 10:53:00,
2013-01-02 02:58:00,15.6,10.3,29.84,East,79,3.5,0.0,79,0.00,CLR,SCT,0.00,WeatherDisplay:10.37,2013-01-02 10:58:00,
2013-01-02 03:04:00,15.6,10.3,29.84,East,79,3.5,0.0,79,0.00,CLR,SCT,0.00,WeatherDisplay:10.37,2013-01-02 11:04:00,
2013-01-02 03:09:00,15.6,10.3,29.84,East,79,3.5,0.0,79,0.00,CLR,SCT,0.00,WeatherDisplay:10.37,2013-01-02 11:09:00,
2013-01-02 03:14:00,15.6,10.3,29.84,North,0,0.0,0.0,79,0.00,CLR,SCT,0.00,WeatherDisplay:10.37,2013-01-02 11:14:00,
2013-01-02 03:19:00,15.8,10.4,29.84,North,0,2.3,0.0,79,0.00,CLR,SCT,0.00,WeatherDisplay:10.37,2013-01-02 11:19:00,
2013-01-02 03:24:00,15.6,10.3,29.84,North,0,0.0,0.0,79,0.00,CLR,SCT,0.00,WeatherDisplay:10.37,2013-01-02 11:24:00,
2013-01-02 03:29:00,15.6,10.3,29.84,North,0,2.0,3.0,79,0.00,CLR,SCT,0.00,WeatherDisplay:10.37,2013-01-02 11:29:00,
2013-01-02 03:35:00,15.4,10.1,29.84,North,0,2.3,2.7,79,0.00,CLR,SCT,0.00,WeatherDisplay:10.37,2013-01-02 11:35:00,
2013-01-02 03:40:00,15.4,10.1,29.84,North,1,2.3,2.7,79,0.00,CLR,SCT,0.00,WeatherDisplay:10.37,2013-01-02 11:40:00,
2013-01-02 03:45:00,15.4,9.8,29.84,North,1,2.3,2.7,78,0.00,CLR,SCT,0.00,WeatherDisplay:10.37,2013-01-02 11:45:00,
2013-01-02 03:50:00,15.3,9.6,29.84,NNE,27,5.8,5.8,78,0.00,CLR,SCT,0.00,WeatherDisplay:10.37,2013-01-02 11:50:00,
2013-01-02 03:55:00,15.3,9.6,29.84,NNE,32,3.5,4.0,78,0.00,CLR,SCT,0.00,WeatherDisplay:10.37,2013-01-02 11:55:00,
2013-01-02 04:00:00,15.3,9.6,29.84,NE,35,3.5,3.6,78,0.00,CLR,SCT,0.00,WeatherDisplay:10.37,2013-01-02 12:00:00,
2013-01-02 04:06:00,15.1,9.5,29.84,NNE,15,3.5,3.5,78,0.00,CLR,SCT,0.00,WeatherDisplay:10.37,2013-01-02 12:06:00,
2013-01-02 04:11:00,15.1,9.5,29.84,North,11,3.5,3.5,78,0.00,CLR,SCT,0.00,WeatherDisplay:10.37,2013-01-02 12:11:00,
2013-01-02 04:16:00,15.1,9.5,29.84,North,11,3.5,3.5,78,0.00,CLR,SCT,0.00,WeatherDisplay:10.37,2013-01-02 12:16:00,
2013-01-02 04:21:00,15.1,9.5,29.84,North,11,3.5,3.5,78,0.00,CLR,SCT,0.00,WeatherDisplay:10.37,2013-01-02 12:21:00,
2013-01-02 04:26:00,15.1,9.5,29.84,NNE,20,3.5,4.0,78,0.00,CLR,SCT,0.00,WeatherDisplay:10.37,2013-01-02 12:26:00,
2013-01-02 04:32:00,15.1,9.5,29.84,NNE,20,3.5,4.0,78,0.00,CLR,SCT,0.00,WeatherDisplay:10.37,2013-01-02 12:32:00,
2013-01-02 04:37:00,14.7,8.8,29.84,South,176,2.3,2.3,77,0.00,CLR,SCT,0.00,WeatherDisplay:10.37,2013-01-02 12:37:00,
2013-01-02 04:42:00,14.5,8.6,29.84,South,176,2.7,2.7,77,0.00,CLR,SCT,0.00,WeatherDisplay:10.37,2013-01-02 12:42:00,
2013-01-02 04:47:00,14.5,8.6,29.84,South,176,2.3,2.3,77,0.00,CLR,SCT,0.00,WeatherDisplay:10.37,2013-01-02 12:47:00,
2013-01-02 04:52:00,14.5,8.6,29.84,NNW,329,2.3,4.0,77,0.00,CLR,SCT,0.00,WeatherDisplay:10.37,2013-01-02 12:52:00,
2013-01-02 04:57:00,14.5,8.6,29.84,North,0,2.3,4.0,77,0.00,CLR,SCT,0.00,WeatherDisplay:10.37,2013-01-02 12:57:00,
2013-01-02 05:02:00,-39.6,-91.9,29.84,South,185,2.3,2.3,3,0.00,CLR,SCT,0.00,WeatherDisplay:10.37,2013-01-02 13:02:00,
2013-01-02 05:08:00,14.5,8.6,29.84,SSW,200,0.0,0.0,77,0.00,CLR,SCT,0.00,WeatherDisplay:10.37,2013-01-02 13:08:00,
2013-01-02 05:13:00,14.5,8.6,29.84,SSW,200,0.0,0.0,77,0.00,CLR,SCT,0.00,WeatherDisplay:10.37,2013-01-02 13:13:00,
2013-01-02 05:18:00,14.5,8.9,29.84,SSW,209,0.0,0.0,78,0.00,CLR,SCT,0.00,WeatherDisplay:10.37,2013-01-02 13:18:00,
2013-01-02 05:23:00,14.5,8.9,29.84,South,191,0.0,0.0,78,0.00,CLR,SCT,0.00,WeatherDisplay:10.37,2013-01-02 13:23:00,
2013-01-02 05:28:00,14.5,8.9,29.84,South,191,0.0,0.0,78,0.00,CLR,SCT,0.00,WeatherDisplay:10.37,2013-01-02 13:28:00,
2013-01-02 05:33:00,14.5,8.9,29.84,SSW,212,0.0,0.0,78,0.00,CLR,SCT,0.00,WeatherDisplay:10.37,2013-01-02 13:33:00,
2013-01-02 05:38:00,14.5,8.9,29.84,SSW,208,0.0,0.0,78,0.00,CLR,SCT,0.00,WeatherDisplay:10.37,2013-01-02 13:38:00,
2013-01-02 05:43:00,14.5,8.9,29.84,SSW,208,0.0,0.0,78,0.00,CLR,SCT,0.00,WeatherDisplay:10.37,2013-01-02 13:43:00,
2013-01-02 05:49:00,14.5,8.9,29.84,SSW,199,0.0,0.0,78,0.00,CLR,SCT,0.00,WeatherDisplay:10.37,2013-01-02 13:49:00,
2013-01-02 05:54:00,14.5,8.9,29.84,SSW,199,0.0,0.0,78,0.00,CLR,SCT,0.00,WeatherDisplay:10.37,2013-01-02 13:54:00,
2013-01-02 05:59:00,14.7,9.4,29.84,South,191,0.0,0.0,79,0.00,CLR,SCT,0.00,WeatherDisplay:10.37,2013-01-02 13:59:00,
2013-01-02 06:04:00,14.7,9.4,29.84,SSW,197,0.0,0.0,79,0.00,CLR,SCT,0.00,WeatherDisplay:10.37,2013-01-02 14:04:00,
2013-01-02 06:09:00,14.7,9.4,29.84,SSW,197,0.0,0.0,79,0.00,CLR,SCT,0.00,WeatherDisplay:10.37,2013-01-02 14:09:00,
2013-01-02 06:14:00,14.7,9.4,29.84,NNE,15,0.0,0.0,79,0.00,CLR,SCT,0.00,WeatherDisplay:10.37,2013-01-02 14:14:00,
2013-01-02 06:20:00,14.7,9.4,29.84,NNE,15,3.5,0.0,79,0.00,CLR,SCT,0.00,WeatherDisplay:10.37,2013-01-02 14:20:00,
2013-01-02 06:25:00,14.7,9.4,29.84,NNE,15,3.5,0.0,79,0.00,CLR,SCT,0.00,WeatherDisplay:10.37,2013-01-02 14:25:00,
2013-01-02 06:30:00,-39.5,-88.0,29.84,NNE,15,0.0,0.0,4,0.00,CLR,SCT,0.00,WeatherDisplay:10.37,2013-01-02 14:30:00,
2013-01-02 06:35:00,14.7,9.4,29.84,North,0,0.0,0.0,79,0.00,CLR,SCT,0.00,WeatherDisplay:10.37,2013-01-02 14:35:00,
2013-01-02 06:40:00,14.5,9.2,29.84,NNE,15,0.0,0.0,79,0.00,CLR,SCT,0.00,WeatherDisplay:10.37,2013-01-02 14:40:00,
2013-01-02 06:46:00,14.5,9.2,29.84,NNE,15,0.0,0.0,79,0.00,CLR,SCT,0.00,WeatherDisplay:10.37,2013-01-02 14:46:00,
2013-01-02 06:51:00,14.5,9.2,29.84,NNE,15,0.0,0.0,79,0.00,CLR,SCT,0.00,WeatherDisplay:10.37,2013-01-02 14:51:00,
2013-01-02 06:56:00,14.5,9.2,29.84,ENE,69,0.0,0.0,79,0.00,CLR,SCT,0.00,WeatherDisplay:10.37,2013-01-02 14:56:00,
2013-01-02 07:01:00,14.5,9.2,29.84,ENE,69,0.0,0.0,79,0.00,CLR,SCT,0.00,WeatherDisplay:10.37,2013-01-02 15:01:00,
2013-01-02 07:06:00,14.5,9.2,29.84,ENE,63,0.0,0.0,79,0.00,CLR,SCT,0.00,WeatherDisplay:10.37,2013-01-02 15:06:00,
2013-01-02 07:11:00,14.7,9.7,29.84,SSW,202,2.3,0.0,80,0.00,CLR,SCT,0.00,WeatherDisplay:10.37,2013-01-02 15:11:00,
2013-01-02 07:17:00,14.7,9.7,29.84,SSW,204,0.0,0.0,80,0.00,CLR,SCT,0.00,WeatherDisplay:10.37,2013-01-02 15:17:00,
2013-01-02 07:22:00,14.5,9.5,29.84,South,172,2.3,2.3,80,0.00,CLR,SCT,0.00,WeatherDisplay:10.37,2013-01-02 15:22:00,
2013-01-02 07:27:00,14.5,9.2,29.84,South,185,3.1,3.6,79,0.00,CLR,SCT,0.00,WeatherDisplay:10.37,2013-01-02 15:27:00,
2013-01-02 07:32:00,14.5,9.2,29.84,South,188,2.3,2.3,79,0.00,CLR,SCT,0.00,WeatherDisplay:10.37,2013-01-02 15:32:00,
2013-01-02 07:38:00,14.5,9.2,29.84,North,9,2.3,2.7,79,0.00,CLR,SCT,0.00,WeatherDisplay:10.37,2013-01-02 15:38:00,
2013-01-02 07:43:00,14.5,9.2,29.84,North,9,2.3,0.0,79,0.00,CLR,SCT,0.00,WeatherDisplay:10.37,2013-01-02 15:43:00,
2013-01-02 07:48:00,14.5,9.2,29.84,North,9,0.0,0.0,79,0.00,CLR,SCT,0.00,WeatherDisplay:10.37,2013-01-02 15:48:00,
2013-01-02 07:53:00,14.5,9.2,29.84,North,0,0.0,0.0,79,0.00,CLR,SCT,0.00,WeatherDisplay:10.37,2013-01-02 15:53:00,
2013-01-02 07:58:00,14.5,9.2,29.84,SSW,208,0.0,0.0,79,0.00,CLR,SCT,0.00,WeatherDisplay:10.37,2013-01-02 15:58:00,
2013-01-02 08:03:00,14.5,9.2,29.84,SW,223,0.0,0.0,79,0.00,CLR,SCT,0.00,WeatherDisplay:10.37,2013-01-02 16:03:00,
2013-01-02 08:08:00,14.4,9.0,29.84,SSW,208,3.5,3.5,79,0.00,CLR,SCT,0.00,WeatherDisplay:10.37,2013-01-02 16:08:00,
2013-01-02 08:13:00,14.4,9.0,29.84,SSW,208,3.5,3.5,79,0.00,CLR,SCT,0.00,WeatherDisplay:10.37,2013-01-02 16:13:00,
2013-01-02 08:18:00,14.2,8.9,29.84,SSE,158,3.5,3.5,79,0.00,CLR,SCT,0.00,WeatherDisplay:10.37,2013-01-02 16:18:00,
2013-01-02 08:24:00,14.2,8.9,29.84,SW,219,3.5,3.5,79,0.00,CLR,SCT,0.00,WeatherDisplay:10.37,2013-01-02 16:24:00,
2013-01-02 08:29:00,14.2,8.3,29.84,SW,219,3.5,3.5,77,0.00,CLR,SCT,0.00,WeatherDisplay:10.37,2013-01-02 16:29:00,
2013-01-02 08:34:00,14.2,8.3,29.84,SW,219,3.5,3.5,77,0.00,CLR,SCT,0.00,WeatherDisplay:10.37,2013-01-02 16:34:00,
2013-01-02 08:39:00,14.0,8.7,30.46,SW,219,3.5,3.5,79,0.00,CLR,SCT,0.00,WeatherDisplay:10.37,2013-01-02 16:39:00,
2013-01-02 08:44:00,13.9,8.6,30.46,SW,232,0.0,5.0,79,0.00,CLR,SCT,0.00,WeatherDisplay:10.37,2013-01-02 16:44:00,
2013-01-02 08:50:00,13.8,8.5,30.46,SW,214,4.6,0.0,79,0.00,CLR,SCT,0.00,WeatherDisplay:10.37,2013-01-02 16:50:00,
2013-01-02 08:55:00,14.0,8.7,30.46,SW,225,0.0,2.2,79,0.00,CLR,SCT,0.00,WeatherDisplay:10.37,2013-01-02 16:55:00,
2013-01-02 09:00:00,14.0,8.4,30.46,SW,225,0.0,2.2,78,0.00,CLR,SCT,0.00,WeatherDisplay:10.37,2013-01-02 17:00:00,
2013-01-02 09:05:00,14.0,8.4,30.46,WSW,241,0.0,2.7,78,0.00,CLR,SCT,0.00,WeatherDisplay:10.37,2013-01-02 17:05:00,
2013-01-02 09:10:00,14.0,8.4,30.46,SW,234,3.5,3.5,78,0.00,CLR,SCT,0.00,WeatherDisplay:10.37,2013-01-02 17:10:00,
2013-01-02 09:16:00,14.0,8.4,30.46,WSW,254,2.3,2.3,78,0.00,CLR,SCT,0.00,WeatherDisplay:10.37,2013-01-02 17:16:00,
2013-01-02 09:21:00,14.0,8.4,30.46,WSW,254,2.3,2.3,78,0.00,CLR,SCT,0.00,WeatherDisplay:10.37,2013-01-02 17:21:00,
2013-01-02 09:26:00,14.7,8.5,30.46,WSW,254,2.3,2.3,76,0.00,CLR,SCT,0.00,WeatherDisplay:10.37,2013-01-02 17:26:00,
2013-01-02 09:31:00,14.9,8.7,30.46,WSW,254,2.3,2.3,76,0.00,CLR,SCT,0.00,WeatherDisplay:10.37,2013-01-02 17:31:00,
2013-01-02 09:36:00,14.9,8.7,30.46,WSW,241,123.1,123.1,76,0.00,CLR,SCT,0.00,WeatherDisplay:10.37,2013-01-02 17:36:00,
2013-01-02 09:41:00,14.9,8.7,30.46,WSW,250,2.3,2.3,76,0.00,CLR,SCT,0.00,WeatherDisplay:10.37,2013-01-02 17:41:00,
2013-01-02 09:47:00,14.9,8.1,30.46,WSW,252,2.3,2.3,74,0.00,CLR,SCT,0.00,WeatherDisplay:10.37,2013-01-02 17:47:00,
2013-01-02 09:52:00,14.9,7.8,29.84,WSW,252,2.3,2.3,73,0.00,CLR,SCT,0.00,WeatherDisplay:10.37,2013-01-02 17:52:00,
2013-01-02 09:57:00,14.9,7.8,29.84,WSW,252,2.3,2.3,73,0.00,CLR,SCT,0.00,WeatherDisplay:10.37,2013-01-02 17:57:00,
2013-01-02 10:02:00,14.9,7.8,29.84,WSW,252,2.3,0.0,73,0.00,CLR,SCT,0.00,WeatherDisplay:10.37,2013-01-02 18:02:00,
2013-01-02 10:07:00,14.9,7.8,29.84,WSW,252,0.0,0.0,73,0.00,CLR,SCT,0.00,WeatherDisplay:10.37,2013-01-02 18:07:00,
2013-01-02 10:13:00,15.1,8.0,29.84,ENE,78,3.5,3.5,73,0.00,CLR,SCT,0.00,WeatherDisplay:10.37,2013-01-02 18:13:00,
2013-01-02 10:18:00,14.9,6.9,29.84,NE,51,3.5,3.6,70,0.00,CLR,SCT,0.00,WeatherDisplay:10.37,2013-01-02 18:18:00,
2013-01-02 10:23:00,14.9,6.9,29.84,ENE,69,2.3,2.3,70,0.00,CLR,SCT,0.00,WeatherDisplay:10.37,2013-01-02 18:23:00,
2013-01-02 10:28:00,15.1,7.4,29.84,ENE,69,2.3,2.3,71,0.00,CLR,SCT,0.00,WeatherDisplay:10.37,2013-01-02 18:28:00,
2013-01-02 10:33:00,15.1,7.4,29.84,ENE,69,2.3,2.3,71,0.00,CLR,SCT,0.00,WeatherDisplay:10.37,2013-01-02 18:33:00,
2013-01-02 10:39:00,15.1,7.4,29.84,ENE,73,0.0,0.0,71,0.00,CLR,SCT,0.00,WeatherDisplay:10.37,2013-01-02 18:39:00,
2013-01-02 10:44:00,15.1,7.4,29.84,ENE,73,0.0,0.0,71,0.00,CLR,SCT,0.00,WeatherDisplay:10.37,2013-01-02 18:44:00,
2013-01-02 10:49:00,15.1,7.4,29.84,ENE,73,0.0,0.0,71,0.00,CLR,SCT,0.00,WeatherDisplay:10.37,2013-01-02 18:49:00,
2013-01-02 10:54:00,15.1,7.4,29.84,North,0,0.0,0.0,71,0.00,CLR,SCT,0.00,WeatherDisplay:10.37,2013-01-02 18:54:00,
2013-01-02 10:59:00,15.6,7.9,29.84,ENE,58,0.0,0.0,71,0.00,CLR,SCT,0.00,WeatherDisplay:10.37,2013-01-02 18:59:00,
2013-01-02 11:04:00,15.6,7.9,29.84,ENE,58,0.0,0.0,71,0.00,CLR,SCT,0.00,WeatherDisplay:10.37,2013-01-02 19:04:00,
2013-01-02 11:09:00,15.6,7.9,29.87,ENE,58,0.0,0.0,71,0.00,CLR,SCT,0.00,WeatherDisplay:10.37,2013-01-02 19:09:00,
2013-01-02 11:14:00,15.6,7.9,29.87,ENE,58,0.0,0.0,71,0.00,CLR,SCT,0.00,WeatherDisplay:10.37,2013-01-02 19:14:00,
2013-01-02 11:19:00,16.2,8.1,29.87,ENE,58,0.0,0.0,70,0.00,CLR,SCT,0.00,WeatherDisplay:10.37,2013-01-02 19:19:00,
2013-01-02 11:24:00,16.2,8.1,29.87,South,180,0.0,0.0,70,0.00,CLR,SCT,0.00,WeatherDisplay:10.37,2013-01-02 19:24:00,
2013-01-02 11:30:00,16.2,8.1,29.87,ENE,73,0.0,0.0,70,0.00,CLR,SCT,0.00,WeatherDisplay:10.37,2013-01-02 19:30:00,
2013-01-02 11:35:00,16.2,8.1,29.87,South,183,0.0,0.0,70,0.00,CLR,SCT,0.00,WeatherDisplay:10.37,2013-01-02 19:35:00,
2013-01-02 11:40:00,16.2,8.1,29.87,South,182,2.3,0.0,70,0.00,CLR,SCT,0.00,WeatherDisplay:10.37,2013-01-02 19:40:00,
2013-01-02 11:45:00,16.2,8.1,29.84,North,9,2.3,0.0,70,0.00,CLR,SCT,0.00,WeatherDisplay:10.37,2013-01-02 19:45:00,
2013-01-02 11:51:00,16.5,7.5,29.84,NE,41,3.5,3.5,67,0.00,CLR,SCT,0.00,WeatherDisplay:10.37,2013-01-02 19:51:00,
2013-01-02 11:56:00,16.7,8.0,29.84,NE,47,2.3,0.0,68,0.00,CLR,SCT,0.00,WeatherDisplay:10.37,2013-01-02 19:56:00,
2013-01-02 12:01:00,17.1,8.0,29.84,NE,47,2.3,0.0,67,0.00,CLR,SCT,0.00,WeatherDisplay:10.37,2013-01-02 20:01:00,
2013-01-02 12:06:00,17.1,8.0,29.84,East,86,2.3,2.3,67,0.00,CLR,SCT,0.00,WeatherDisplay:10.37,2013-01-02 20:06:00,
2013-01-02 12:11:00,17.1,7.0,29.84,East,89,3.5,3.5,64,0.00,CLR,SCT,0.00,WeatherDisplay:10.37,2013-01-02 20:11:00,
2013-01-02 12:17:00,17.1,6.6,29.84,ESE,104,3.5,3.5,63,0.00,CLR,SCT,0.00,WeatherDisplay:10.37,2013-01-02 20:17:00,
2013-01-02 12:22:00,17.1,6.6,29.84,East,97,2.3,0.0,63,0.00,CLR,SCT,0.00,WeatherDisplay:10.37,2013-01-02 20:22:00,
2013-01-02 12:27:00,17.1,6.6,29.84,East,97,2.3,0.0,63,0.00,CLR,SCT,0.00,WeatherDisplay:10.37,2013-01-02 20:27:00,
2013-01-02 12:32:00,17.1,6.6,29.84,East,91,0.0,0.0,63,0.00,CLR,SCT,0.00,WeatherDisplay:10.37,2013-01-02 20:32:00,
2013-01-02 12:37:00,17.2,6.4,29.84,NNE,31,0.0,0.0,62,0.00,CLR,SCT,0.00,WeatherDisplay:10.37,2013-01-02 20:37:00,
2013-01-02 12:43:00,17.2,6.4,29.84,NNE,31,0.0,0.0,62,0.00,CLR,SCT,0.00,WeatherDisplay:10.37,2013-01-02 20:43:00,
2013-01-02 12:48:00,17.6,7.5,29.84,NNE,31,0.0,0.0,64,0.00,CLR,SCT,0.00,WeatherDisplay:10.37,2013-01-02 20:48:00,
2013-01-02 12:53:00,17.6,7.5,29.84,NNE,31,0.0,0.0,64,0.00,CLR,SCT,0.00,WeatherDisplay:10.37,2013-01-02 20:53:00,
2013-01-02 12:58:00,18.1,7.3,29.84,East,85,0.0,0.0,62,0.00,CLR,SCT,0.00,WeatherDisplay:10.37,2013-01-02 20:58:00,
2013-01-02 13:03:00,18.1,7.3,29.84,East,85,0.0,0.0,62,0.00,CLR,SCT,0.00,WeatherDisplay:10.37,2013-01-02 21:03:00,
2013-01-02 13:08:00,18.3,7.1,29.84,East,85,0.0,0.0,61,0.00,CLR,SCT,0.00,WeatherDisplay:10.37,2013-01-02 21:08:00,
2013-01-02 13:13:00,18.3,7.1,29.84,East,85,0.0,0.0,61,0.00,CLR,SCT,0.00,WeatherDisplay:10.37,2013-01-02 21:13:00,
2013-01-02 13:18:00,18.3,7.1,29.84,North,0,0.0,0.0,61,0.00,CLR,SCT,0.00,WeatherDisplay:10.37,2013-01-02 21:18:00,
2013-01-02 13:24:00,18.5,7.3,29.81,NE,35,0.0,0.0,61,0.00,CLR,SCT,0.00,WeatherDisplay:10.37,2013-01-02 21:24:00,
2013-01-02 13:29:00,18.5,7.3,29.81,NE,35,0.0,0.0,61,0.00,CLR,SCT,0.00,WeatherDisplay:10.37,2013-01-02 21:29:00,
2013-01-02 13:34:00,18.5,6.9,29.81,NE,35,0.0,0.0,60,0.00,CLR,SCT,0.00,WeatherDisplay:10.37,2013-01-02 21:34:00,
2013-01-02 13:39:00,18.5,7.3,29.81,NE,35,0.0,0.0,61,0.00,CLR,SCT,0.00,WeatherDisplay:10.37,2013-01-02 21:39:00,
2013-01-02 13:44:00,18.7,6.7,29.81,North,355,2.0,3.0,59,0.00,CLR,SCT,0.00,WeatherDisplay:10.37,2013-01-02 21:44:00,
2013-01-02 13:50:00,18.7,7.1,29.81,NW,312,3.5,3.5,60,0.00,CLR,SCT,0.00,WeatherDisplay:10.37,2013-01-02 21:50:00,
2013-01-02 13:55:00,18.7,7.1,29.81,NW,312,3.5,3.5,60,0.00,CLR,SCT,0.00,WeatherDisplay:10.37,2013-01-02 21:55:00,
2013-01-02 14:00:00,19.0,7.0,29.81,WNW,286,3.5,0.0,59,0.00,CLR,SCT,0.00,WeatherDisplay:10.37,2013-01-02 22:00:00,
2013-01-02 14:05:00,19.0,7.0,29.81,WNW,286,0.0,0.0,59,0.00,CLR,SCT,0.00,WeatherDisplay:10.37,2013-01-02 22:05:00,
2013-01-02 14:10:00,18.9,6.9,29.81,NW,320,2.3,2.3,59,0.00,CLR,SCT,0.00,WeatherDisplay:10.37,2013-01-02 22:10:00,
2013-01-02 14:16:00,18.7,6.7,29.81,NW,320,2.3,2.3,59,0.00,CLR,SCT,0.00,WeatherDisplay:10.37,2013-01-02 22:16:00,
2013-01-02 14:21:00,18.7,6.7,29.81,ENE,71,2.3,2.3,59,0.00,CLR,SCT,0.00,WeatherDisplay:10.37,2013-01-02 22:21:00,
2013-01-02 14:26:00,19.0,7.0,29.81,East,94,2.3,0.0,59,0.00,CLR,SCT,0.00,WeatherDisplay:10.37,2013-01-02 22:26:00,
2013-01-02 14:32:00,18.9,6.5,29.81,NW,324,2.3,0.0,58,0.00,CLR,SCT,0.00,WeatherDisplay:10.37,2013-01-02 22:32:00,
2013-01-02 14:37:00,19.0,7.0,29.81,WNW,303,3.5,3.5,59,0.00,CLR,SCT,0.00,WeatherDisplay:10.37,2013-01-02 22:37:00,
2013-01-02 14:42:00,19.0,7.0,29.81,WNW,303,3.5,3.5,59,0.00,CLR,SCT,0.00,WeatherDisplay:10.37,2013-01-02 22:42:00,
2013-01-02 14:47:00,19.2,7.2,29.81,WNW,293,2.3,2.3,59,0.00,CLR,SCT,0.00,WeatherDisplay:10.37,2013-01-02 22:47:00,
2013-01-02 14:52:00,19.2,7.2,29.81,WNW,293,2.3,2.3,59,0.00,CLR,SCT,0.00,WeatherDisplay:10.37,2013-01-02 22:52:00,
2013-01-02 14:57:00,19.2,7.2,29.81,ESE,112,2.3,0.0,59,0.00,CLR,SCT,0.00,WeatherDisplay:10.37,2013-01-02 22:57:00,
2013-01-02 15:03:00,19.2,7.2,29.81,ESE,112,0.0,0.0,59,0.00,CLR,SCT,0.00,WeatherDisplay:10.37,2013-01-02 23:03:00,
2013-01-02 15:08:00,19.2,7.2,29.81,ESE,106,2.3,0.0,59,0.00,CLR,SCT,0.00,WeatherDisplay:10.37,2013-01-02 23:08:00,
2013-01-02 15:13:00,19.2,7.2,29.81,SSE,154,2.3,2.7,59,0.00,CLR,SCT,0.00,WeatherDisplay:10.37,2013-01-02 23:13:00,
2013-01-02 15:18:00,19.2,7.2,29.81,NW,306,2.3,2.7,59,0.00,CLR,SCT,0.00,WeatherDisplay:10.37,2013-01-02 23:18:00,
2013-01-02 15:23:00,19.2,7.2,29.81,NW,306,2.3,2.7,59,0.00,CLR,SCT,0.00,WeatherDisplay:10.37,2013-01-02 23:23:00,
2013-01-02 15:28:00,19.2,7.2,29.81,NW,306,2.3,2.7,59,0.00,CLR,SCT,0.00,WeatherDisplay:10.37,2013-01-02 23:28:00,
2013-01-02 15:34:00,19.2,7.2,29.81,NW,306,2.3,2.7,59,0.00,CLR,SCT,0.00,WeatherDisplay:10.37,2013-01-02 23:34:00,
2013-01-02 15:39:00,18.9,6.9,29.81,WNW,289,5.8,5.8,59,0.00,CLR,SCT,0.00,WeatherDisplay:10.37,2013-01-02 23:39:00,
2013-01-02 15:44:00,18.7,6.3,29.81,WNW,289,5.8,5.8,58,0.00,CLR,SCT,0.00,WeatherDisplay:10.37,2013-01-02 23:44:00,
2013-01-02 15:49:00,18.7,6.3,29.81,NW,304,2.3,0.0,58,0.00,CLR,SCT,0.00,WeatherDisplay:10.37,2013-01-02 23:49:00,
2013-01-02 15:55:00,18.7,6.3,29.81,ESE,122,3.5,3.5,58,0.00,CLR,SCT,0.00,WeatherDisplay:10.37,2013-01-02 23:55:00,
2013-01-02 16:00:00,45.7,31.7,29.81,ESE,122,3.5,3.5,58,0.00,CLR,SCT,0.00,WeatherDisplay:10.37,2013-01-03 00:00:00,
2013-01-02 16:05:00,18.3,6.7,29.81,NW,321,3.5,3.5,60,0.00,CLR,SCT,0.00,WeatherDisplay:10.37,2013-01-03 00:05:00,
2013-01-02 16:10:00,18.3,6.7,29.81,NW,321,3.5,3.5,60,0.00,CLR,SCT,0.00,WeatherDisplay:10.37,2013-01-03 00:10:00,
2013-01-02 16:15:00,18.1,6.6,29.81,NW,321,3.5,3.5,60,0.00,CLR,SCT,0.00,WeatherDisplay:10.37,2013-01-03 00:15:00,
2013-01-02 16:20:00,18.1,6.6,29.81,WSW,237,3.5,3.5,60,0.00,CLR,SCT,0.00,WeatherDisplay:10.37,2013-01-03 00:20:00,
2013-01-02 16:26:00,18.3,6.7,29.81,WSW,237,3.5,3.5,60,0.00,CLR,SCT,0.00,WeatherDisplay:10.37,2013-01-03 00:26:00,
2013-01-02 16:32:00,18.1,6.6,29.81,NW,307,0.0,0.0,60,0.00,CLR,SCT,0.00,WeatherDisplay:10.37,2013-01-03 00:32:00,
2013-01-02 16:37:00,18.0,6.8,29.81,NW,307,0.0,0.0,61,0.00,CLR,SCT,0.00,WeatherDisplay:10.37,2013-01-03 00:37:00,
2013-01-02 16:42:00,18.0,6.8,29.81,NW,307,0.0,0.0,61,0.00,CLR,SCT,0.00,WeatherDisplay:10.37,2013-01-03 00:42:00,
2013-01-02 16:47:00,17.4,6.6,29.81,WNW,282,0.0,2.7,62,0.00,CLR,SCT,0.00,WeatherDisplay:10.37,2013-01-03 00:47:00,
2013-01-02 16:52:00,17.6,7.5,29.81,ESE,114,4.6,4.6,64,0.00,CLR,SCT,0.00,WeatherDisplay:10.37,2013-01-03 00:52:00,
2013-01-02 16:58:00,17.6,7.5,29.81,WNW,288,0.0,0.0,64,0.00,CLR,SCT,0.00,WeatherDisplay:10.37,2013-01-03 00:58:00,
2013-01-02 17:03:00,17.6,7.5,29.81,West,280,0.0,0.0,64,0.00,CLR,SCT,0.00,WeatherDisplay:10.37,2013-01-03 01:03:00,
2013-01-02 17:08:00,17.6,7.5,29.81,WNW,291,2.3,3.6,64,0.00,CLR,SCT,0.00,WeatherDisplay:10.37,2013-01-03 01:08:00,
2013-01-02 17:13:00,17.6,7.5,29.81,WNW,286,2.3,0.0,64,0.00,CLR,SCT,0.00,WeatherDisplay:10.37,2013-01-03 01:13:00,
2013-01-02 17:18:00,17.8,7.7,29.81,NW,308,2.3,0.0,64,0.00,CLR,SCT,0.00,WeatherDisplay:10.37,2013-01-03 01:18:00,
2013-01-02 17:23:00,17.8,7.7,29.81,North,7,3.5,0.0,64,0.00,CLR,SCT,0.00,WeatherDisplay:10.37,2013-01-03 01:23:00,
2013-01-02 17:29:00,17.4,7.7,29.81,North,7,3.5,0.0,65,0.00,CLR,SCT,0.00,WeatherDisplay:10.37,2013-01-03 01:29:00,
2013-01-02 17:34:00,17.4,7.7,29.81,NW,318,3.5,0.0,65,0.00,CLR,SCT,0.00,WeatherDisplay:10.37,2013-01-03 01:34:00,
2013-01-02 17:39:00,17.1,7.3,29.81,NW,318,2.3,0.0,65,0.00,CLR,SCT,0.00,WeatherDisplay:10.37,2013-01-03 01:39:00,
2013-01-02 17:44:00,17.1,7.6,29.81,NW,318,0.0,3.0,66,0.00,CLR,SCT,0.00,WeatherDisplay:10.37,2013-01-03 01:44:00,
2013-01-02 17:49:00,17.1,7.6,29.81,NW,308,2.3,0.0,66,0.00,CLR,SCT,0.00,WeatherDisplay:10.37,2013-01-03 01:49:00,
2013-01-02 17:54:00,17.1,8.0,29.81,NW,308,0.0,0.0,67,0.00,CLR,SCT,0.00,WeatherDisplay:10.37,2013-01-03 01:54:00,
2013-01-02 17:59:00,17.4,8.7,29.81,NW,308,0.0,0.0,68,0.00,CLR,SCT,0.00,WeatherDisplay:10.37,2013-01-03 01:59:00,
2013-01-02 18:04:00,17.4,8.7,29.81,NW,308,0.0,0.0,68,0.00,CLR,SCT,0.00,WeatherDisplay:10.37,2013-01-03 02:04:00,
2013-01-02 18:09:00,17.6,9.5,29.81,ENE,73,0.0,0.0,70,0.00,CLR,SCT,0.00,WeatherDisplay:10.37,2013-01-03 02:09:00,
2013-01-02 18:14:00,17.6,9.2,29.81,North,0,2.3,0.0,69,0.00,CLR,SCT,0.00,WeatherDisplay:10.37,2013-01-03 02:14:00,
2013-01-02 18:20:00,17.6,9.2,29.81,North,0,2.3,0.0,69,0.00,CLR,SCT,0.00,WeatherDisplay:10.37,2013-01-03 02:20:00,
2013-01-02 18:25:00,17.6,9.2,29.81,North,0,0.0,0.0,69,0.00,CLR,SCT,0.00,WeatherDisplay:10.37,2013-01-03 02:25:00,
2013-01-02 18:30:00,17.6,10.7,29.81,North,0,0.0,0.0,74,0.00,CLR,SCT,0.00,WeatherDisplay:10.37,2013-01-03 02:30:00,
2013-01-02 18:35:00,17.6,10.7,29.81,ENE,72,0.0,0.0,74,0.00,CLR,SCT,0.00,WeatherDisplay:10.37,2013-01-03 02:35:00,
2013-01-02 18:40:00,17.6,10.7,29.81,ENE,72,0.0,0.0,74,0.00,CLR,SCT,0.00,WeatherDisplay:10.37,2013-01-03 02:40:00,
2013-01-02 18:46:00,17.6,10.7,29.81,North,0,0.0,0.0,74,0.00,CLR,SCT,0.00,WeatherDisplay:10.37,2013-01-03 02:46:00,
2013-01-02 18:51:00,17.6,10.7,29.81,North,0,0.0,0.0,74,0.00,CLR,SCT,0.00,WeatherDisplay:10.37,2013-01-03 02:51:00,
2013-01-02 18:57:00,17.6,10.7,29.81,North,0,0.0,0.0,74,0.00,CLR,SCT,0.00,WeatherDisplay:10.37,2013-01-03 02:57:00,
2013-01-02 19:02:00,17.2,9.8,29.81,NW,322,0.0,0.0,72,0.00,CLR,SCT,0.00,WeatherDisplay:10.37,2013-01-03 03:02:00,
2013-01-02 19:07:00,17.2,9.8,29.81,NW,322,0.0,0.0,72,0.00,CLR,SCT,0.00,WeatherDisplay:10.37,2013-01-03 03:07:00,
2013-01-02 19:12:00,17.2,9.8,29.81,North,3,0.0,0.0,72,0.00,CLR,SCT,0.00,WeatherDisplay:10.37,2013-01-03 03:12:00,
2013-01-02 19:17:00,17.2,9.8,29.81,North,3,0.0,0.0,72,0.00,CLR,SCT,0.00,WeatherDisplay:10.37,2013-01-03 03:17:00,
2013-01-02 19:22:00,17.2,9.8,29.81,SSE,157,3.5,0.0,72,0.00,CLR,SCT,0.00,WeatherDisplay:10.37,2013-01-03 03:22:00,
2013-01-02 19:27:00,17.2,9.8,29.81,SSE,157,0.0,0.0,72,0.00,CLR,SCT,0.00,WeatherDisplay:10.37,2013-01-03 03:27:00,
2013-01-02 19:32:00,16.9,9.1,29.81,SSE,157,0.0,0.0,71,0.00,CLR,SCT,0.00,WeatherDisplay:10.37,2013-01-03 03:32:00,
2013-01-02 19:40:00,16.9,9.1,29.81,South,186,3.5,0.0,71,0.00,CLR,SCT,0.00,WeatherDisplay:10.37,2013-01-03 03:40:00,
2013-01-02 19:45:00,16.9,9.1,29.81,South,186,2.3,0.0,71,0.00,CLR,SCT,0.00,WeatherDisplay:10.37,2013-01-03 03:45:00,
2013-01-02 19:51:00,16.9,9.1,29.81,North,0,2.3,2.3,71,0.00,CLR,SCT,0.00,WeatherDisplay:10.37,2013-01-03 03:51:00,
2013-01-02 19:56:00,16.9,9.1,29.81,North,0,3.5,3.5,71,0.00,CLR,SCT,0.00,WeatherDisplay:10.37,2013-01-03 03:56:00,
2013-01-02 20:01:00,16.9,9.1,29.78,North,0,3.5,3.5,71,0.00,CLR,SCT,0.00,WeatherDisplay:10.37,2013-01-03 04:01:00,
2013-01-02 20:06:00,16.9,9.1,29.78,North,0,3.5,3.5,71,0.00,CLR,SCT,0.00,WeatherDisplay:10.37,2013-01-03 04:06:00,
2013-01-02 20:11:00,16.7,8.9,29.78,North,0,3.5,3.5,71,0.00,CLR,SCT,0.00,WeatherDisplay:10.37,2013-01-03 04:11:00,
2013-01-02 20:17:00,16.7,8.9,29.78,NNE,33,2.3,2.3,71,0.00,CLR,SCT,0.00,WeatherDisplay:10.37,2013-01-03 04:17:00,
2013-01-02 20:22:00,16.7,8.9,29.78,NNE,32,2.3,0.0,71,0.00,CLR,SCT,0.00,WeatherDisplay:10.37,2013-01-03 04:22:00,
2013-01-02 20:27:00,16.7,8.9,29.78,NNE,32,0.0,0.0,71,0.00,CLR,SCT,0.00,WeatherDisplay:10.37,2013-01-03 04:27:00,
2013-01-02 20:32:00,16.7,8.9,29.78,NNE,32,0.0,0.0,71,0.00,CLR,SCT,0.00,WeatherDisplay:10.37,2013-01-03 04:32:00,
2013-01-02 20:37:00,16.7,8.9,29.78,NNE,32,0.0,0.0,71,0.00,CLR,SCT,0.00,WeatherDisplay:10.37,2013-01-03 04:37:00,
2013-01-02 20:42:00,16.7,8.9,29.78,NNE,32,0.0,0.0,71,0.00,CLR,SCT,0.00,WeatherDisplay:10.37,2013-01-03 04:42:00,
2013-01-02 20:48:00,16.7,8.9,29.78,NNE,32,0.0,0.0,71,0.00,CLR,SCT,0.00,WeatherDisplay:10.37,2013-01-03 04:48:00,
2013-01-02 20:53:00,16.7,8.9,29.78,NNE,33,0.0,0.0,71,0.00,CLR,SCT,0.00,WeatherDisplay:10.37,2013-01-03 04:53:00,
2013-01-02 20:58:00,16.7,8.9,29.78,NNE,32,0.0,0.0,71,0.00,CLR,SCT,0.00,WeatherDisplay:10.37,2013-01-03 04:58:00,
2013-01-02 21:00:00,16.7,8.9,29.78,NNE,32,0.0,0.0,71,0.00,CLR,SCT,0.00,WeatherDisplay:10.37,2013-01-03 05:00:00,
2013-01-02 21:03:00,16.7,8.9,28.19,NNE,33,0.0,0.0,71,0.00,CLR,SCT,0.00,WeatherDisplay:10.37,2013-01-03 05:03:00,
2013-01-02 21:05:00,16.7,8.9,28.19,NNE,33,0.0,0.0,71,0.00,CLR,SCT,0.00,WeatherDisplay:10.37,2013-01-03 05:05:00,
2013-01-02 21:10:00,16.7,8.9,28.19,NNE,32,0.0,0.0,71,0.00,CLR,SCT,0.00,WeatherDisplay:10.37,2013-01-03 05:10:00,
2013-01-02 21:15:00,16.7,8.9,29.78,NNE,32,0.0,0.0,71,0.00,CLR,SCT,0.00,WeatherDisplay:10.37,2013-01-03 05:15:00,
2013-01-02 21:20:00,16.7,8.9,29.78,NNE,32,0.0,0.0,71,0.00,CLR,SCT,0.00,WeatherDisplay:10.37,2013-01-03 05:20:00,
2013-01-02 21:25:00,16.5,9.1,29.78,NNE,33,2.7,2.7,72,0.00,CLR,SCT,0.00,WeatherDisplay:10.37,2013-01-03 05:25:00,
2013-01-02 21:31:00,16.5,9.1,29.78,NNE,33,2.3,2.3,72,0.00,CLR,SCT,0.00,WeatherDisplay:10.37,2013-01-03 05:31:00,
2013-01-02 21:36:00,16.5,9.1,29.78,NNE,33,2.3,2.3,72,0.00,CLR,SCT,0.00,WeatherDisplay:10.37,2013-01-03 05:36:00,
2013-01-02 21:41:00,16.2,8.7,29.78,NE,40,2.3,2.7,72,0.00,CLR,SCT,0.00,WeatherDisplay:10.37,2013-01-03 05:41:00,
2013-01-02 21:46:00,16.2,8.7,29.78,NE,40,2.3,3.1,72,0.00,CLR,SCT,0.00,WeatherDisplay:10.37,2013-01-03 05:46:00,
2013-01-02 21:52:00,16.0,8.5,29.78,NE,56,3.5,0.0,72,0.00,CLR,SCT,0.00,WeatherDisplay:10.37,2013-01-03 05:52:00,
2013-01-02 21:57:00,16.0,8.5,29.78,NE,56,3.5,0.0,72,0.00,CLR,SCT,0.00,WeatherDisplay:10.37,2013-01-03 05:57:00,
2013-01-02 22:02:00,16.2,9.0,29.78,NE,46,3.5,3.5,73,0.00,CLR,SCT,0.00,WeatherDisplay:10.37,2013-01-03 06:02:00,
2013-01-02 22:07:00,16.2,9.0,29.78,NE,46,3.5,3.5,73,0.00,CLR,SCT,0.00,WeatherDisplay:10.37,2013-01-03 06:07:00,
2013-01-02 22:12:00,16.2,9.0,29.78,NE,46,3.5,3.5,73,0.00,CLR,SCT,0.00,WeatherDisplay:10.37,2013-01-03 06:12:00,
2013-01-02 22:18:00,16.2,9.0,29.78,NE,48,3.5,3.5,73,0.00,CLR,SCT,0.00,WeatherDisplay:10.37,2013-01-03 06:18:00,
2013-01-02 22:23:00,16.2,9.0,29.78,NE,42,3.5,3.5,73,0.00,CLR,SCT,0.00,WeatherDisplay:10.37,2013-01-03 06:23:00,
2013-01-02 22:28:00,16.2,9.0,29.78,NE,44,2.3,2.7,73,0.00,CLR,SCT,0.00,WeatherDisplay:10.37,2013-01-03 06:28:00,
2013-01-02 22:33:00,16.2,9.0,29.78,NE,44,2.3,2.7,73,0.00,CLR,SCT,0.00,WeatherDisplay:10.37,2013-01-03 06:33:00,
2013-01-02 22:38:00,16.2,9.0,29.78,ENE,59,2.3,0.0,73,0.00,CLR,SCT,0.00,WeatherDisplay:10.37,2013-01-03 06:38:00,
2013-01-02 22:44:00,16.2,9.0,29.78,ENE,59,2.3,2.7,73,0.00,CLR,SCT,0.00,WeatherDisplay:10.37,2013-01-03 06:44:00,
2013-01-02 22:49:00,16.2,9.0,29.78,ENE,59,0.0,0.0,73,0.00,CLR,SCT,0.00,WeatherDisplay:10.37,2013-01-03 06:49:00,
2013-01-02 22:54:00,16.2,9.0,29.78,ENE,59,0.0,0.0,73,0.00,CLR,SCT,0.00,WeatherDisplay:10.37,2013-01-03 06:54:00,
2013-01-02 22:59:00,16.0,8.8,29.78,North,359,1.2,20.8,73,0.00,CLR,SCT,0.00,WeatherDisplay:10.37,2013-01-03 06:59:00,
2013-01-02 23:04:00,16.0,8.8,29.78,ENE,59,0.0,0.0,73,0.00,CLR,SCT,0.00,WeatherDisplay:10.37,2013-01-03 07:04:00,
2013-01-02 23:10:00,16.0,8.8,29.78,ENE,59,0.0,0.0,73,0.00,CLR,SCT,0.00,WeatherDisplay:10.37,2013-01-03 07:10:00,
2013-01-02 23:15:00,16.2,9.0,29.78,ENE,59,0.0,0.0,73,0.00,CLR,SCT,0.00,WeatherDisplay:10.37,2013-01-03 07:15:00,
2013-01-02 23:20:00,16.2,9.0,29.78,ENE,59,0.0,0.0,73,0.00,CLR,SCT,0.00,WeatherDisplay:10.37,2013-01-03 07:20:00,
2013-01-02 23:25:00,16.2,9.0,29.78,ENE,59,0.0,0.0,73,0.00,CLR,SCT,0.00,WeatherDisplay:10.37,2013-01-03 07:25:00,
2013-01-02 23:30:00,16.2,9.0,29.75,ENE,59,0.0,0.0,73,0.00,CLR,SCT,0.00,WeatherDisplay:10.37,2013-01-03 07:30:00,
2013-01-02 23:36:00,16.2,9.0,29.78,ENE,59,0.0,0.0,73,0.00,CLR,SCT,0.00,WeatherDisplay:10.37,2013-01-03 07:36:00,
2013-01-02 23:41:00,16.2,8.7,29.78,ENE,59,0.0,0.0,72,0.00,CLR,SCT,0.00,WeatherDisplay:10.37,2013-01-03 07:41:00,
2013-01-02 23:46:00,16.2,8.7,29.78,ENE,59,0.0,0.0,72,0.00,CLR,SCT,0.00,WeatherDisplay:10.37,2013-01-03 07:46:00,
2013-01-02 23:51:00,16.2,8.7,29.78,ENE,59,0.0,0.0,72,0.00,CLR,SCT,0.00,WeatherDisplay:10.37,2013-01-03 07:51:00,
2013-01-02 23:56:00,16.2,8.7,29.78,ENE,59,0.0,0.0,72,0.00,CLR,SCT,0.00,WeatherDisplay:10.37,2013-01-03 07:56:00,